Regional Weather Roundup
Issued by NWS Albany, NY

Home | Current Version | Previous Version | Text Only | Print | Product List | Glossary On
Versions: 1 2 3 4 5 6 7 8 9 10 11 12 13 14 15 16 17 18 19 20 21 22 23 24 25 26 27 28
000
ASUS41 KALY 261110
RWRALY

NEW YORK STATE HOURLY WEATHER ROUNDUP
NATIONAL WEATHER SERVICE ALBANY NY
600 AM EST SUN FEB 26 2017

NOTE: "FAIR" INDICATES FEW OR NO CLOUDS BELOW 12,000 FEET WITH NO
SIGNIFICANT WEATHER AND/OR NO OBSTRUCTIONS TO VISIBILITY.

NYZ032-033-038>043-046>054-057>066-NYZ062>081-082-084-261200-
EAST


CITY           SKY/WX    TMP DP  RH WIND       PRES   REMARKS
ALBANY         CLOUDY    33  20  58 W14       29.82R WCI  23
GLENS FALLS    FLURRIES  33  21  61 W10G21    29.77R WCI  25
POUGHKEEPSIE   CLOUDY    35  19  52 W15G21    29.82R WCI  25
NEWBURGH       MOCLDY    34  21  60 NW18G25   29.84R WCI  23
MONTGOMERY     CLOUDY    35  19  52 NW12G22   29.83R WCI  27
WHITE PLAINS   PTCLDY    36  20  52 NW8       29.81R WCI  30
ISLIP          PTCLDY    37  19  48 NW24G37   29.81R WCI  26
NEW YORK CITY  PTCLDY    39  19  44 NW18G26   29.85R WCI  30
CENTRAL PARK   CLEAR     36  18  48 NW8G21    29.87R WCI  30
$$

NYZ005>009-017-018-044>046-055-056-261200-
CENTRAL


CITY           SKY/WX    TMP DP  RH WIND       PRES   REMARKS
FULTON         MIX PCPN  30  16  56 W22G33    29.88R WCI  17
SYRACUSE       FLURRIES  29  18  63 W20G28    29.89R WCI  16
ROME           LGT SNOW  27  25  92 W18       29.87R FOG     WCI  14
ELMIRA         CLOUDY    28  14  55 W15       29.91R WCI  16
BINGHAMTON     CLOUDY    25  16  68 VRB5      29.83R WCI  19
MONTICELLO     PTCLDY   N/A N/A N/A NW23G29   29.80R
$$

NYZ026>034-041>043-087-261200-
NORTH


CITY           SKY/WX    TMP DP  RH WIND       PRES   REMARKS
WATERTOWN      CLOUDY    28  18  66 W18G29    29.86R WCI  15
FORT DRUM      NOT AVBL
OGDENSBURG     FAIR      27  17  63 W14G23    29.80R WCI  16
MASSENA        CLOUDY    28  17  63 W17G23    29.77R WCI  16
SARANAC LAKE   CLOUDY    22  16  78 W13G26    29.65R WCI  10
PLATTSBURGH    CLOUDY    30  18  60 W8G20     29.71R WCI  22
$$

NYZ001>004-010>016-019>021-085-261200-
WEST


CITY           SKY/WX    TMP DP  RH WIND       PRES   REMARKS
NIAGARA FALLS  LGT SNOW  27  21  78 W13       29.96R WCI  16
BUFFALO        FLURRIES  27  16  63 W15G28    29.95R WCI  15
DUNKIRK        LGT SNOW  26  20  77 W15G22    29.98R WCI  14
JAMESTOWN      CLOUDY    21  16  79 W8        29.92R WCI  12
WELLSVILLE     CLOUDY    23  13  65 NW17G32   29.87R WCI   9
ROCHESTER      CLOUDY    27  21  78 W10       29.93R WCI  17
PENN YAN       CLOUDY    28  17  63 W12       29.90R WCI  18
$$

             KEY
       WCI = WIND CHILL INDEX
       VSB = VISIBILITY
       HX  = HEAT INDEX
$$




USA.gov is the U.S. government's official web portal to all federal, state and local government web resources and services.